Вернуться в каталог

FENGYUN 4A

АктивенПогодаGEO
NORAD 41882·PAYLOAD·🇨🇳 China

Запущен Dec 10, 2016 с Xichang Satellite Launch Center

Loading…

TLE

СвежийSource: Space-Track

Эпоха: Sep 14, 2026, 21:13 UTC

1 41882U 16077A   26257.88464725 -.00000365  00000-0  00000-0 0  9995
2 41882   2.5444  79.1446 0008023 166.8208 189.5118  1.00267825 35821

Отслеживайте FENGYUN 4A в реальном времени с AllMySat

Download on the App Store